Weather History for Auburn, IN

Change the Weather History Date:

Tuesday, May 7, 2013

  Actual Average (KFWA) Record (KFWA)
Temperature  
Mean Temperature 62 °F 58 °F  
Max Temperature 73 °F 69 °F 87 °F (1926)
Min Temperature 50 °F 46 °F 28 °F (1989)
Degree Days  
Heating Degree Days 4 8  
Month to date heating degree days 63  
Since 1 July heating degree days 5945  
Cooling Degree Days 0 1  
Month to date cooling degree days 3  
Year to date cooling degree days 11  
Growing Degree Days 12 (Base 50)    
Moisture  
Dew Point 48 °F    
Average Humidity 60    
Maximum Humidity 82    
Minimum Humidity 43    
Precipitation  
Precipitation 0.00 in 0.11 in 1.08 in (2004)
Month to date precipitation 0.78  
Year to date precipitation 11.31  
Snow  
Snow 0.00 in 0.00 in T in (1947)
Month to date snowfall 0.0  
Since 1 July snowfall 33.5  
Snow Depth -    
Sea Level Pressure  
Sea Level Pressure 30.01 in    
Wind  
Wind Speed 4 mph (NE)    
Max Wind Speed 14 mph    
Max Gust Speed 18 mph    
Visibility 10 miles    
Events      
T = Trace of Precipitation, MM = Missing Value Source: NWS Daily Summary

Daily Weather History Graph

Daily Weather History Graph

Search for Another Location

Airport:

Trip Planner

Search our weather history database for the weather conditions in past years. The results will help you decide how hot, cold, wet, or windy it might be!

Date:

Astronomy

May. 07, 2013 Rise Set
Actual Time 6:29 AM EDT 8:44 PM EDT
Civil Twilight 5:59 AM EDT 9:15 PM EDT
Nautical Twilight 5:21 AM EDT 9:52 PM EDT
Astronomical Twilight 4:40 AM EDT 10:34 PM EDT
Moon 5:05 AM EDT (5/7) 6:42 PM EDT (5/7)
Length of Visible Light 15h 15m
Length of Day
14h 14m
Waning Crescent, 5% of the Moon is Illuminated
May 7
Waning Crescent
May 9
New
May 18
First Quarter
May 25
Full
May 31
Last Quarter

Hourly Weather History & Observations

Time (EDT) Temp. Dew Point Humidity Pressure Visibility Wind Dir Wind Speed Gust Speed Precip Events Conditions
12:15 AM 59.0 °F 46.4 °F 63% 30.01 in 10.0 mi ENE 4.6 mph - N/A   Scattered Clouds
12:35 AM 57.2 °F 46.4 °F 67% 30.01 in 10.0 mi ENE 4.6 mph - N/A   Scattered Clouds
12:55 AM 59.0 °F 46.4 °F 63% 30.01 in 10.0 mi ENE 4.6 mph - N/A   Scattered Clouds
1:15 AM 59.0 °F 46.4 °F 63% 30.01 in 10.0 mi ENE 3.5 mph - N/A   Mostly Cloudy
1:35 AM 57.2 °F 46.4 °F 67% 30.01 in 10.0 mi Calm Calm - N/A   Mostly Cloudy
1:55 AM 55.4 °F 46.4 °F 72% 30.00 in 10.0 mi ENE 3.5 mph - N/A   Scattered Clouds
2:15 AM 55.4 °F 46.4 °F 72% 30.00 in 10.0 mi ENE 3.5 mph - N/A   Mostly Cloudy
2:35 AM 55.4 °F 46.4 °F 72% 30.00 in 10.0 mi Calm Calm - N/A   Overcast
2:55 AM 55.4 °F 46.4 °F 72% 29.99 in 10.0 mi Calm Calm - N/A   Overcast
3:15 AM 55.4 °F 46.4 °F 72% 29.99 in 10.0 mi NE 3.5 mph - N/A   Overcast
3:35 AM 55.4 °F 44.6 °F 67% 29.99 in 10.0 mi NE 3.5 mph - N/A   Overcast
4:15 AM 53.6 °F 46.4 °F 77% 30.00 in 10.0 mi Calm Calm - N/A   Overcast
4:35 AM 53.6 °F 44.6 °F 72% 30.00 in 10.0 mi Calm Calm - N/A   Scattered Clouds
4:55 AM 51.8 °F 44.6 °F 76% 30.00 in 10.0 mi Calm Calm - N/A   Clear
5:15 AM 51.8 °F 44.6 °F 76% 30.00 in 10.0 mi Calm Calm - N/A   Clear
5:35 AM 51.8 °F 44.6 °F 76% 30.00 in 10.0 mi Calm Calm - N/A   Scattered Clouds
5:55 AM 51.8 °F 44.6 °F 76% 30.01 in 10.0 mi Calm Calm - N/A   Mostly Cloudy
6:15 AM 51.8 °F 44.6 °F 76% 30.01 in 10.0 mi Calm Calm - N/A   Scattered Clouds
6:35 AM 50.0 °F 44.6 °F 82% 30.02 in 10.0 mi Calm Calm - N/A   Scattered Clouds
6:55 AM 50.0 °F 44.6 °F 82% 30.03 in 10.0 mi Calm Calm - N/A   Scattered Clouds
7:15 AM 51.8 °F 44.6 °F 76% 30.03 in 10.0 mi NE 3.5 mph - N/A   Clear
7:35 AM 53.6 °F 44.6 °F 72% 30.04 in 10.0 mi East 3.5 mph - N/A   Scattered Clouds
7:55 AM 55.4 °F 44.6 °F 67% 30.04 in 10.0 mi ENE 4.6 mph - N/A   Scattered Clouds
8:15 AM 55.4 °F 44.6 °F 67% 30.04 in 10.0 mi NE 3.5 mph - N/A   Clear
8:35 AM 57.2 °F 44.6 °F 63% 30.04 in 10.0 mi NE 3.5 mph - N/A   Clear
9:15 AM 59.0 °F 46.4 °F 63% 30.05 in 10.0 mi NNE 3.5 mph - N/A   Clear
9:35 AM 60.8 °F 46.4 °F 59% 30.05 in 10.0 mi NE 4.6 mph - N/A   Clear
9:55 AM 62.6 °F 48.2 °F 59% 30.05 in 10.0 mi NNE 3.5 mph - N/A   Clear
10:15 AM 64.4 °F 50.0 °F 59% 30.04 in 10.0 mi North 5.8 mph - N/A   Clear
10:35 AM 64.4 °F 50.0 °F 59% 30.04 in 10.0 mi NE 5.8 mph - N/A   Clear
10:55 AM 68.0 °F 51.8 °F 56% 30.04 in 10.0 mi NNE 6.9 mph - N/A   Clear
11:15 AM 68.0 °F 51.8 °F 56% 30.03 in 10.0 mi NE 4.6 mph - N/A   Clear
11:35 AM 69.8 °F 51.8 °F 53% 30.03 in 10.0 mi NNE 10.4 mph - N/A   Clear
11:55 AM 71.6 °F 50.0 °F 46% 30.03 in 10.0 mi East 8.1 mph - N/A   Clear
12:15 PM 71.6 °F 50.0 °F 46% 30.03 in 10.0 mi NNE 10.4 mph - N/A   Scattered Clouds
12:35 PM 71.6 °F 50.0 °F 46% 30.03 in 10.0 mi ENE 9.2 mph - N/A   Mostly Cloudy
12:55 PM 69.8 °F 48.2 °F 46% 30.03 in 10.0 mi East 12.7 mph - N/A   Mostly Cloudy
1:15 PM 71.6 °F 50.0 °F 46% 30.02 in 10.0 mi ENE 12.7 mph 16.1 mph N/A   Overcast
1:55 PM 73.4 °F 50.0 °F 44% 30.02 in 10.0 mi East 11.5 mph 18.4 mph N/A   Mostly Cloudy
2:15 PM 73.4 °F 51.8 °F 47% 30.01 in 10.0 mi ENE 11.5 mph 17.3 mph N/A   Mostly Cloudy
2:35 PM 71.6 °F 50.0 °F 46% 30.01 in 10.0 mi East 9.2 mph - N/A   Mostly Cloudy
2:55 PM 71.6 °F 51.8 °F 50% 30.01 in 10.0 mi ENE 12.7 mph 17.3 mph N/A   Mostly Cloudy
3:15 PM 71.6 °F 51.8 °F 50% 30.00 in 10.0 mi NNE 8.1 mph - N/A   Mostly Cloudy
3:35 PM 71.6 °F 50.0 °F 46% 30.00 in 10.0 mi NE 10.4 mph - N/A   Mostly Cloudy
3:55 PM 71.6 °F 50.0 °F 46% 30.00 in 10.0 mi East 8.1 mph - N/A   Overcast
4:15 PM 71.6 °F 50.0 °F 46% 30.00 in 10.0 mi East 10.4 mph 16.1 mph N/A   Mostly Cloudy
4:35 PM 71.6 °F 50.0 °F 46% 29.99 in 10.0 mi ENE 11.5 mph 17.3 mph N/A   Mostly Cloudy
4:55 PM 71.6 °F 50.0 °F 46% 29.99 in 10.0 mi East 8.1 mph - N/A   Mostly Cloudy
5:15 PM 73.4 °F 50.0 °F 44% 29.99 in 10.0 mi ENE 10.4 mph - N/A   Scattered Clouds
5:35 PM 73.4 °F 50.0 °F 44% 29.99 in 10.0 mi ENE 9.2 mph - N/A   Clear
5:55 PM 71.6 °F 50.0 °F 46% 29.98 in 10.0 mi NE 5.8 mph - N/A   Mostly Cloudy
6:15 PM 71.6 °F 48.2 °F 43% 29.98 in 10.0 mi ENE 8.1 mph - N/A   Mostly Cloudy
6:35 PM 71.6 °F 50.0 °F 46% 29.98 in 10.0 mi ENE 9.2 mph - N/A   Scattered Clouds
6:55 PM 71.6 °F 48.2 °F 43% 29.98 in 10.0 mi NE 8.1 mph - N/A   Clear
7:15 PM 71.6 °F 48.2 °F 43% 29.98 in 10.0 mi ENE 13.8 mph - N/A   Clear
7:35 PM 69.8 °F 48.2 °F 46% 29.98 in 10.0 mi ENE 11.5 mph - N/A   Clear
7:55 PM 69.8 °F 48.2 °F 46% 29.99 in 10.0 mi ENE 6.9 mph - N/A   Clear
8:15 PM 68.0 °F 50.0 °F 52% 29.99 in 10.0 mi ENE 6.9 mph - N/A   Clear
8:35 PM 66.2 °F 50.0 °F 56% 30.00 in 10.0 mi NE 4.6 mph - N/A   Clear
8:55 PM 62.6 °F 50.0 °F 63% 30.00 in 10.0 mi NE 3.5 mph - N/A   Clear
9:15 PM 62.6 °F 50.0 °F 63% 30.00 in 10.0 mi NE 3.5 mph - N/A   Clear
9:35 PM 60.8 °F 50.0 °F 68% 30.01 in 10.0 mi Calm Calm - N/A   Clear
9:55 PM 60.8 °F 50.0 °F 68% 30.02 in 10.0 mi Calm Calm - N/A   Clear
10:15 PM 60.8 °F 50.0 °F 68% 30.02 in 10.0 mi Calm Calm - N/A   Clear
10:35 PM 59.0 °F 50.0 °F 72% 30.02 in 10.0 mi East 3.5 mph - N/A   Clear
10:55 PM 59.0 °F 50.0 °F 72% 30.03 in 10.0 mi ENE 3.5 mph - N/A   Clear
11:15 PM 59.0 °F 50.0 °F 72% 30.03 in 10.0 mi Calm Calm - N/A   Clear
11:35 PM 57.2 °F 50.0 °F 77% 30.03 in 10.0 mi Calm Calm - N/A   Clear
11:55 PM 57.2 °F 50.0 °F 77% 30.03 in 10.0 mi Calm Calm - N/A   Clear